�������l�o���
Date,Time,MP-1(��Sv/h),MP-2(��Sv/h),MP-3(��Sv/h),MP-4(��Sv/h),MP-5(��Sv/h),MP-6(��Sv/h),MP-7(��Sv/h),MP-8(��Sv/h),����,����(m/s),���J
2021/02/15,00:00,0.673,0.970,0.616,1.224,0.867,0.382,0.677,0.635,��,7.5,��
2021/02/15,00:10,0.676,0.972,0.615,1.223,0.867,0.382,0.676,0.634,��,7.2,��
2021/02/15,00:20,0.673,0.971,0.616,1.223,0.868,0.382,0.679,0.635,��,7.4,��
2021/02/15,00:30,0.673,0.969,0.617,1.223,0.867,0.382,0.678,0.634,��,6.6,��
2021/02/15,00:40,0.674,0.969,0.615,1.221,0.867,0.383,0.677,0.634,��,7.0,��
2021/02/15,00:50,0.674,0.972,0.617,1.224,0.868,0.382,0.678,0.634,��,7.3,��
2021/02/15,01:00,0.673,0.972,0.617,1.222,0.869,0.384,0.677,0.635,��,8.9,��
2021/02/15,01:10,0.673,0.971,0.616,1.221,0.868,0.384,0.678,0.634,��,9.1,��
2021/02/15,01:20,0.673,0.972,0.615,1.224,0.867,0.382,0.677,0.635,��,9.1,��
2021/02/15,01:30,0.672,0.972,0.618,1.223,0.867,0.382,0.678,0.634,��,8.3,��
2021/02/15,01:40,0.674,0.972,0.617,1.223,0.868,0.382,0.678,0.634,��,8.2,��
2021/02/15,01:50,0.674,0.972,0.617,1.223,0.868,0.383,0.677,0.635,��,6.6,��
2021/02/15,02:00,0.674,0.971,0.615,1.220,0.868,0.382,0.678,0.634,��,7.0,��
2021/02/15,02:10,0.675,0.974,0.617,1.224,0.866,0.384,0.678,0.637,��,6.6,��
2021/02/15,02:20,0.675,0.970,0.617,1.221,0.867,0.382,0.679,0.635,��쐼,6.7,��
2021/02/15,02:30,0.673,0.971,0.616,1.224,0.868,0.383,0.679,0.635,��쐼,7.0,��
2021/02/15,02:40,0.673,0.972,0.616,1.223,0.867,0.383,0.678,0.637,��쐼,6.4,��
2021/02/15,02:50,0.673,0.970,0.615,1.220,0.869,0.383,0.680,0.634,��,6.4,��
2021/02/15,03:00,0.674,0.971,0.616,1.221,0.869,0.384,0.679,0.636,��,6.1,��
2021/02/15,03:10,0.675,0.969,0.616,1.221,0.868,0.384,0.681,0.636,��쓌,6.0,��
2021/02/15,03:20,0.674,0.971,0.615,1.222,0.866,0.382,0.677,0.636,��쓌,7.6,��
2021/02/15,03:30,0.675,0.971,0.615,1.221,0.870,0.382,0.677,0.635,��쓌,6.7,��
2021/02/15,03:40,0.674,0.971,0.617,1.221,0.869,0.383,0.678,0.636,��쓌,5.5,��
2021/02/15,03:50,0.674,0.969,0.617,1.224,0.867,0.384,0.676,0.636,��쓌,6.2,��
2021/02/15,04:00,0.673,0.972,0.616,1.224,0.868,0.384,0.677,0.635,��쓌,7.6,��
2021/02/15,04:10,0.675,0.971,0.616,1.223,0.869,0.384,0.677,0.636,��쓌,9.8,��
2021/02/15,04:20,0.673,0.972,0.616,1.223,0.869,0.383,0.678,0.636,��,7.5,��
2021/02/15,04:30,0.673,0.972,0.615,1.223,0.868,0.384,0.678,0.637,��,6.9,��
2021/02/15,04:40,0.674,0.974,0.617,1.220,0.868,0.384,0.677,0.635,��,6.1,��
2021/02/15,04:50,0.674,0.971,0.617,1.222,0.868,0.383,0.677,0.636,��,6.0,��
2021/02/15,05:00,0.673,0.973,0.617,1.224,0.868,0.383,0.680,0.635,��쐼,6.4,��
2021/02/15,05:10,0.674,0.973,0.618,1.222,0.867,0.383,0.678,0.637,��,7.6,��
2021/02/15,05:20,0.674,0.974,0.617,1.221,0.869,0.384,0.677,0.637,��,7.3,��
2021/02/15,05:30,0.671,0.973,0.617,1.222,0.867,0.384,0.678,0.636,��,5.8,��
2021/02/15,05:40,0.673,0.972,0.617,1.223,0.869,0.384,0.679,0.635,��,5.2,��
2021/02/15,05:50,0.675,0.974,0.617,1.223,0.868,0.384,0.679,0.636,��,4.6,��
2021/02/15,06:00,0.675,0.973,0.616,1.221,0.869,0.383,0.677,0.636,��,3.7,��
2021/02/15,06:10,0.673,0.971,0.617,1.220,0.867,0.384,0.678,0.637,��쐼,4.9,��
2021/02/15,06:20,0.675,0.973,0.617,1.223,0.868,0.384,0.679,0.635,��쐼,4.6,��
2021/02/15,06:30,0.674,0.972,0.616,1.222,0.868,0.383,0.677,0.635,��,6.0,��
2021/02/15,06:40,0.675,0.972,0.617,1.221,0.868,0.384,0.678,0.636,��,5.1,��
2021/02/15,06:50,0.673,0.972,0.617,1.223,0.869,0.382,0.678,0.637,��,4.9,��
2021/02/15,07:00,0.674,0.972,0.615,1.224,0.866,0.383,0.677,0.636,��,8.4,��
2021/02/15,07:10,0.673,0.971,0.616,1.223,0.868,0.383,0.677,0.636,��,8.8,��
2021/02/15,07:20,0.675,0.973,0.617,1.225,0.867,0.383,0.679,0.637,��,10.3,��
2021/02/15,07:30,0.675,0.975,0.617,1.224,0.869,0.384,0.678,0.637,��,7.7,��
2021/02/15,07:40,0.676,0.971,0.617,1.223,0.869,0.383,0.677,0.636,��,7.5,��
2021/02/15,07:50,0.676,0.971,0.617,1.223,0.869,0.384,0.679,0.636,��,7.6,�L
2021/02/15,08:00,0.675,0.972,0.618,1.223,0.867,0.383,0.677,0.635,��,9.1,�L
2021/02/15,08:10,0.672,0.970,0.616,1.222,0.868,0.382,0.676,0.634,��,7.9,�L
2021/02/15,08:20,0.676,0.969,0.615,1.222,0.867,0.383,0.678,0.635,��쐼,6.1,�L
2021/02/15,08:30,0.670,0.968,0.616,1.220,0.861,0.381,0.675,0.634,��쐼,6.2,�L
2021/02/15,08:40,0.671,0.962,0.614,1.218,0.858,0.383,0.676,0.632,��,6.9,�L
2021/02/15,08:50,0.671,0.960,0.611,1.215,0.853,0.382,0.676,0.633,��,7.1,�L
2021/02/15,09:00,0.670,0.958,0.613,1.217,0.854,0.381,0.674,0.632,��,7.4,�L
2021/02/15,09:10,0.670,0.960,0.610,1.218,0.855,0.382,0.675,0.632,��,8.9,�L
2021/02/15,09:20,0.669,0.958,0.612,1.217,0.857,0.382,0.674,0.630,��쐼,8.5,�L
2021/02/15,09:30,0.668,0.958,0.612,1.216,0.854,0.382,0.675,0.633,��쐼,8.1,��
2021/02/15,09:40,0.668,0.957,0.613,1.215,0.857,0.383,0.676,0.632,��쐼,7.6,�L
2021/02/15,09:50,0.669,0.963,0.613,1.216,0.853,0.381,0.676,0.632,��쐼,6.9,�L
2021/02/15,10:00,0.668,0.959,0.612,1.216,0.855,0.382,0.675,0.633,��,7.0,�L
2021/02/15,10:10,0.663,0.951,0.609,1.207,0.847,0.381,0.672,0.630,��,8.5,�L
2021/02/15,10:20,0.661,0.942,0.608,1.202,0.844,0.382,0.671,0.629,��,8.1,�L
2021/02/15,10:30,0.661,0.943,0.607,1.203,0.844,0.381,0.670,0.628,��,6.8,�L
2021/02/15,10:40,0.659,0.943,0.605,1.204,0.842,0.381,0.670,0.630,��,6.5,��
2021/02/15,10:50,0.660,0.943,0.606,1.201,0.843,0.380,0.671,0.629,��,6.4,�L
2021/02/15,11:00,0.661,0.946,0.608,1.201,0.844,0.382,0.670,0.628,��,6.7,�L
2021/02/15,11:10,0.661,0.943,0.607,1.202,0.844,0.382,0.671,0.629,��,5.5,�L
2021/02/15,11:20,0.660,0.938,0.603,1.198,0.838,0.382,0.669,0.630,��쓌,5.6,�L
2021/02/15,11:30,0.656,0.934,0.603,1.191,0.833,0.378,0.667,0.627,��쓌,5.2,�L
2021/02/15,11:40,0.654,0.931,0.602,1.186,0.830,0.378,0.667,0.626,��쓌,5.6,�L
2021/02/15,11:50,0.652,0.930,0.600,1.183,0.827,0.380,0.666,0.625,�쓌,6.1,�L
2021/02/15,12:00,0.653,0.928,0.600,1.179,0.828,0.379,0.666,0.624,�쓌,9.6,�L
2021/02/15,12:10,0.653,0.926,0.602,1.177,0.826,0.379,0.666,0.624,��쓌,9.2,�L
2021/02/15,12:20,0.652,0.924,0.599,1.174,0.823,0.378,0.664,0.622,��쓌,9.8,�L
2021/02/15,12:30,0.646,0.915,0.596,1.165,0.813,0.375,0.662,0.618,�쓌,12.1,�L
2021/02/15,12:40,0.640,0.908,0.593,1.153,0.806,0.373,0.659,0.618,�쓌,8.7,�L
2021/02/15,12:50,0.642,0.902,0.592,1.151,0.805,0.374,0.657,0.616,��쓌,13.0,�L
2021/02/15,13:00,0.638,0.901,0.592,1.148,0.802,0.373,0.656,0.618,�쓌,10.2,�L
2021/02/15,13:10,0.637,0.896,0.592,1.146,0.800,0.373,0.657,0.616,��쓌,8.0,�L
2021/02/15,13:20,0.636,0.896,0.590,1.142,0.799,0.372,0.655,0.616,�쓌,8.2,�L
2021/02/15,13:30,0.639,0.898,0.591,1.144,0.798,0.373,0.657,0.616,�쓌,9.0,�L
2021/02/15,13:40,0.639,0.897,0.591,1.142,0.795,0.373,0.656,0.616,�쓌,9.6,�L
2021/02/15,13:50,0.637,0.899,0.590,1.144,0.798,0.375,0.658,0.617,�쓌,9.1,�L
2021/02/15,14:00,0.638,0.896,0.588,1.140,0.796,0.374,0.655,0.617,�쓌,11.4,�L
2021/02/15,14:10,0.636,0.893,0.588,1.139,0.792,0.373,0.654,0.616,���쓌,9.9,�L
2021/02/15,14:20,0.628,0.883,0.586,1.130,0.785,0.370,0.652,0.611,-,CALM,�L
2021/02/15,14:30,0.631,0.886,0.587,1.131,0.784,0.371,0.653,0.614,���쓌,12.8,�L
2021/02/15,14:40,0.624,0.880,0.583,1.129,0.779,0.370,0.652,0.612,�쓌,11.8,�L
2021/02/15,14:50,0.627,0.882,0.582,1.126,0.777,0.371,0.650,0.613,���쓌,11.1,�L
2021/02/15,15:00,0.627,0.880,0.581,1.122,0.773,0.367,0.651,0.610,�쓌,9.6,�L
2021/02/15,15:10,0.622,0.873,0.579,1.115,0.765,0.368,0.648,0.607,-,CALM,�L
2021/02/15,15:20,0.621,0.872,0.579,1.113,0.759,0.364,0.644,0.607,-,CALM,�L
2021/02/15,15:30,0.620,0.871,0.579,1.112,0.757,0.366,0.645,0.606,-,CALM,�L
2021/02/15,15:40,0.623,0.874,0.579,1.111,0.754,0.367,0.647,0.607,���쓌,11.6,�L
2021/02/15,15:50,0.621,0.870,0.578,1.110,0.751,0.365,0.647,0.606,��,14.9,�L
2021/02/15,16:00,0.621,0.868,0.576,1.104,0.749,0.366,0.645,0.605,-,CALM,�L
2021/02/15,16:10,0.616,0.861,0.573,1.091,0.736,0.360,0.642,0.601,�k��,7.0,�L
2021/02/15,16:20,0.612,0.858,0.571,1.086,0.728,0.354,0.638,0.597,�k,4.4,�L
2021/02/15,16:30,0.603,0.849,0.567,1.072,0.719,0.341,0.633,0.593,�k�k��,8.4,�L
2021/02/15,16:40,0.601,0.848,0.568,1.071,0.715,0.329,0.635,0.591,-,CALM,�L
2021/02/15,16:50,0.610,0.859,0.572,1.082,0.724,0.347,0.638,0.597,�k,16.9,�L
2021/02/15,17:00,0.616,0.866,0.575,1.092,0.728,0.359,0.640,0.600,�k��,14.1,�L
2021/02/15,17:10,0.621,0.869,0.577,1.098,0.733,0.366,0.643,0.602,���k��,16.1,�L
2021/02/15,17:20,0.626,0.874,0.577,1.105,0.736,0.366,0.645,0.604,���k��,11.9,�L
2021/02/15,17:30,0.625,0.873,0.576,1.107,0.731,0.366,0.643,0.604,���k��,14.2,�L
2021/02/15,17:40,0.625,0.874,0.577,1.106,0.734,0.367,0.645,0.605,���k��,14.1,�L
2021/02/15,17:50,0.631,0.880,0.579,1.115,0.736,0.369,0.648,0.606,���k��,16.3,�L
2021/02/15,18:00,0.632,0.884,0.581,1.120,0.742,0.369,0.648,0.608,���k��,15.2,��
2021/02/15,18:10,0.633,0.887,0.583,1.123,0.744,0.369,0.650,0.610,���k��,13.6,��
2021/02/15,18:20,0.634,0.890,0.582,1.126,0.749,0.371,0.651,0.610,���k��,13.3,��
2021/02/15,18:30,0.636,0.892,0.582,1.129,0.751,0.371,0.651,0.612,���k��,14.9,��
2021/02/15,18:40,0.637,0.894,0.582,1.131,0.753,0.371,0.652,0.612,���k��,11.1,��
2021/02/15,18:50,0.635,0.894,0.585,1.131,0.754,0.370,0.651,0.613,�k��,9.6,��
2021/02/15,19:00,0.635,0.894,0.584,1.131,0.755,0.371,0.652,0.615,���k��,6.5,��
2021/02/15,19:10,0.637,0.898,0.585,1.132,0.757,0.372,0.652,0.614,�k��,7.3,��
2021/02/15,19:20,0.637,0.897,0.584,1.134,0.756,0.372,0.652,0.614,�k��,8.4,��
2021/02/15,19:30,0.637,0.898,0.584,1.136,0.760,0.373,0.654,0.614,�k��,6.6,��
2021/02/15,19:40,0.638,0.900,0.585,1.136,0.760,0.372,0.654,0.615,�k��,7.9,��
2021/02/15,19:50,0.637,0.900,0.584,1.135,0.760,0.373,0.652,0.615,�k�k��,7.0,��
2021/02/15,20:00,0.636,0.899,0.585,1.137,0.761,0.373,0.654,0.615,�k��,7.6,��
2021/02/15,20:10,0.637,0.902,0.584,1.137,0.762,0.375,0.653,0.615,�k��,8.7,��
2021/02/15,20:20,0.637,0.901,0.585,1.137,0.764,0.373,0.657,0.616,�k��,7.6,��
2021/02/15,20:30,0.638,0.900,0.585,1.140,0.762,0.373,0.655,0.615,�k��,7.9,��
2021/02/15,20:40,0.638,0.901,0.586,1.138,0.764,0.372,0.655,0.616,�k��,3.2,��
2021/02/15,20:50,0.638,0.901,0.586,1.139,0.765,0.373,0.657,0.616,�쓌,2.3,��
2021/02/15,21:00,0.639,0.903,0.585,1.139,0.766,0.372,0.655,0.615,���쓌,3.1,��
2021/02/15,21:10,0.638,0.902,0.586,1.138,0.766,0.373,0.657,0.617,�쓌,4.0,��
2021/02/15,21:20,0.639,0.901,0.586,1.141,0.766,0.372,0.655,0.615,��쐼,5.2,��
2021/02/15,21:30,0.639,0.904,0.587,1.139,0.768,0.371,0.657,0.615,�쐼,2.2,��
2021/02/15,21:40,0.640,0.902,0.585,1.140,0.769,0.371,0.657,0.617,���쐼,0.9,��
2021/02/15,21:50,0.639,0.906,0.585,1.141,0.770,0.372,0.656,0.617,��,2.6,��
2021/02/15,22:00,0.640,0.905,0.588,1.141,0.771,0.373,0.657,0.620,���쐼,6.8,��
2021/02/15,22:10,0.640,0.903,0.585,1.139,0.771,0.373,0.657,0.618,���쐼,8.0,��
2021/02/15,22:20,0.639,0.906,0.586,1.140,0.773,0.374,0.656,0.616,��,6.6,��
2021/02/15,22:30,0.638,0.905,0.585,1.140,0.772,0.373,0.657,0.617,��,8.4,��
2021/02/15,22:40,0.641,0.907,0.586,1.140,0.775,0.374,0.657,0.616,��,10.2,��
2021/02/15,22:50,0.639,0.906,0.586,1.142,0.774,0.374,0.658,0.617,���쐼,13.5,��
2021/02/15,23:00,0.639,0.906,0.588,1.143,0.775,0.372,0.657,0.619,��,13.0,��
2021/02/15,23:10,0.640,0.907,0.588,1.144,0.777,0.373,0.657,0.617,��,17.7,��
2021/02/15,23:20,0.641,0.905,0.589,1.145,0.777,0.373,0.656,0.617,��,18.6,��
2021/02/15,23:30,0.642,0.906,0.587,1.143,0.775,0.374,0.655,0.618,��,12.0,��
2021/02/15,23:40,0.642,0.907,0.588,1.145,0.778,0.374,0.657,0.620,��,15.8,��
2021/02/15,23:50,0.641,0.906,0.587,1.145,0.777,0.374,0.656,0.619,��,13.8,��
